Location: Unspecified
(0.0000°N, 0.0000°E)
Time: 04:17:29
(UTC+00:00)

A-11 Canister half - Pass Details

Date: 22 April 2026
Orbit: 1523 x 1685 km, 47.3° (Epoch: 13 May)

Event Time Altitude Azimuth Distance (km) Brightness Sun altitude
Rises 06:45:23 0° 338° (NNW) 4,893 11.5 11.4°
Reaches altitude 10° 06:49:01 10° 347° (NNW) 3,889 11.2 12.3°
Maximum altitude 06:57:42 34° 49° (NE) 2,430 11.2 14.4°
Drops below altitude 10° 07:06:07 10° 110° (ESE) 3,786 12.2 16.5°
Sets 07:09:33 0° 119° (ESE) 4,749 12.3 17.3°
